DL9GJ-6 Weather Reports


time (UTC)temp
C
wind
direction
speed
KPH
gust
KPH
rain 1hr
cm
rain 24hr
cm
rain mn
cm
humidity
%
barometer
mb
20260506233821 7 227 4.8 9.7 0.00 1.24 0.00 92 1010.1
20260506233220 7 230 4.8 6.4 0.00 1.24 0.00 92 1010.1
20260506232620 7 236 1.6 6.4 0.00 1.24 0.00 92 1010.1
20260506232019 7 234 1.6 6.4 0.00 1.24 0.00 92 1010.0
20260506231419 7 234 1.6 6.4 0.00 1.24 0.00 91 1010.0
20260506230819 7 240 4.8 8.0 0.00 1.24 0.00 91 1010.0
20260506230219 7 222 1.6 6.4 0.00 1.24 0.00 91 1010.0
20260506225619 8 225 4.8 8.0 0.00 1.24 0.00 91 1010.0
20260506225019 8 222 1.6 6.4 0.00 1.24 0.00 91 1009.9
20260506224420 8 221 3.2 6.4 0.00 1.24 0.00 91 1010.0
20260506223807 8 167 0.0 6.4 0.00 1.24 0.00 91 1009.9
20260506223220 8 227 3.2 9.7 0.00 1.24 0.00 91 1009.9
20260506222620 8 240 8.0 11.3 0.00 1.24 0.00 91 1009.8
20260506222019 8 186 4.8 11.3 0.00 1.24 0.00 91 1009.9
20260506221410 8 216 3.2 8.0 0.00 1.24 0.00 91 1009.8
20260506220808 8 217 1.6 8.0 0.00 1.24 0.00 91 1009.7
20260506220221 8 240 4.8 8.0 0.00 1.24 0.00 91 1009.7
20260506215621 8 217 4.8 9.7 0.00 1.24 1.24 91 1009.7
20260506215021 8 201 3.2 6.4 0.00 1.24 1.24 91 1009.7
20260506214421 8 246 4.8 11.3 0.00 1.24 1.24 90 1009.5
20260506213819 8 235 8.0 11.3 0.00 1.24 1.24 90 1009.5
20260506213220 8 225 1.6 9.7 0.00 1.24 1.24 90 1009.4
20260506212619 8 236 3.2 11.3 0.00 1.24 1.24 90 1009.4
20260506212020 8 243 8.0 11.3 0.00 1.24 1.24 90 1009.4
20260506211420 8 228 6.4 12.9 0.00 1.24 1.24 90 1009.3
20260506210819 8 223 11.3 16.1 0.00 1.24 1.24 90 1009.2
20260506210212 8 231 4.8 12.9 0.00 1.24 1.24 90 1009.0
20260506205619 8 237 8.0 11.3 0.00 1.24 1.24 90 1009.1
20260506205019 9 232 6.4 14.5 0.00 1.24 1.24 90 1009.2
20260506204420 9 244 8.0 12.9 0.00 1.24 1.24 90 1009.3
20260506203821 9 225 8.0 14.5 0.00 1.24 1.24 90 1009.2
20260506203220 9 223 6.4 12.9 0.00 1.24 1.24 90 1009.2
20260506202620 9 234 8.0 11.3 0.00 1.24 1.24 90 1009.2
20260506202020 9 238 6.4 14.5 0.00 1.24 1.24 90 1009.3
20260506201420 9 258 4.8 12.9 0.00 1.24 1.24 90 1009.2
20260506200821 9 229 8.0 12.9 0.00 1.24 1.24 90 1009.2
20260506200220 9 227 4.8 14.5 0.00 1.24 1.24 90 1009.1
20260506195619 9 236 8.0 14.5 0.00 1.24 1.24 90 1009.1
20260506195010 9 236 4.8 14.5 0.00 1.24 1.24 90 1009.1
20260506194419 9 220 4.8 14.5 0.00 1.24 1.24 90 1008.9
20260506193820 9 226 8.0 11.3 0.00 1.24 1.24 90 1008.7
20260506193220 9 234 9.7 16.1 0.00 1.24 1.24 90 1008.7
20260506192620 9 219 4.8 9.7 0.00 1.24 1.24 90 1008.6
20260506192019 9 228 4.8 12.9 0.00 1.24 1.24 90 1008.6
20260506191420 9 244 3.2 12.9 0.00 1.24 1.24 91 1008.5
20260506190819 9 209 4.8 11.3 0.00 1.24 1.24 91 1008.4
20260506190220 9 221 4.8 14.5 0.00 1.24 1.24 91 1008.3
20260506185620 9 231 4.8 11.3 0.00 1.24 1.24 91 1008.2
20260506185020 9 238 3.2 9.7 0.00 1.24 1.24 91 1008.2
20260506184421 9 242 3.2 8.0 0.00 1.24 1.24 91 1008.0
20260506183820 9 250 4.8 9.7 0.00 1.24 1.24 91 1008.0
20260506183221 9 231 4.8 8.0 0.00 1.24 1.24 91 1007.9
20260506182621 10 269 4.8 11.3 0.00 1.24 1.24 91 1007.9
20260506182021 10 247 8.0 12.9 0.00 1.24 1.24 91 1007.9
20260506181420 10 245 6.4 9.7 0.00 1.24 1.24 91 1007.8
20260506180819 10 312 3.2 12.9 0.00 1.24 1.24 91 1007.8
20260506180220 10 225 6.4 12.9 0.00 1.24 1.24 91 1007.7
20260506175620 10 267 4.8 12.9 0.00 1.24 1.24 91 1007.6
20260506175012 10 280 6.4 19.3 0.00 1.24 1.24 91 1007.6
20260506174419 10 234 6.4 14.5 0.00 1.24 1.24 91 1007.5
20260506173819 10 223 6.4 14.5 0.00 1.24 1.24 91 1007.4
20260506173219 10 306 6.4 16.1 0.00 1.24 1.24 91 1007.1
20260506172619 10 257 6.4 12.9 0.00 1.24 1.24 91 1007.2
20260506172008 10 223 1.6 12.9 0.03 1.24 1.24 91 1007.1
20260506171420 10 249 8.0 16.1 0.03 1.24 1.24 91 1007.0
20260506170821 10 236 8.0 17.7 0.03 1.24 1.24 91 1007.1
20260506170220 10 231 11.3 16.1 0.03 1.24 1.24 91 1007.1
20260506165620 10 246 9.7 12.9 0.03 1.24 1.24 91 1006.9
20260506165021 10 256 8.0 17.7 0.03 1.24 1.24 91 1006.7
20260506164421 10 244 6.4 17.7 0.05 1.24 1.24 91 1006.8
20260506163821 10 155 8.0 17.7 0.25 1.24 1.24 91 1006.7
20260506163220 10 280 11.3 24.1 0.36 1.24 1.24 91 1006.6
20260506162620 10 264 6.4 16.1 0.36 1.24 1.24 91 1006.7
20260506162020 10 188 4.8 22.5 0.38 1.22 1.22 91 1006.7
20260506161420 10 292 11.3 29.0 1.17 1.22 1.22 91 1006.6
20260506160819 10 242 11.3 29.0 1.19 1.22 1.22 91 1006.6
20260506160219 10 309 11.3 30.6 1.19 1.22 1.22 91 1006.7
20260506155620 10 289 12.9 30.6 1.19 1.22 1.22 90 1006.6
20260506155019 10 269 9.7 20.9 1.19 1.22 1.22 90 1006.6
20260506154419 11 258 11.3 20.9 1.17 1.17 1.17 90 1006.5
20260506153820 11 278 3.2 19.3 0.97 0.99 0.99 90 1006.5
20260506153208 11 223 8.0 30.6 0.86 0.89 0.89 89 1006.2
20260506152606 11 300 14.5 32.2 0.86 0.89 0.89 88 1006.0
20260506152020 12 240 9.7 38.6 0.81 0.84 0.84 85 1005.8
20260506151421 15 232 8.0 24.1 0.03 0.05 0.05 71 1005.1
20260506150821 16 264 1.6 3.2 0.00 0.03 0.03 68 1004.2
20260506150220 16 231 0.0 3.2 0.00 0.03 0.03 69 1004.1
20260506145621 16 231 0.0 3.2 0.00 0.05 0.03 67 1003.9
20260506145019 16 223 0.0 3.2 0.00 0.05 0.03 68 1003.9
20260506144420 16 202 1.6 6.4 0.00 0.05 0.03 68 1004.2
20260506143819 17 216 4.8 11.3 0.00 0.05 0.03 68 1004.2
20260506143220 17 179 6.4 16.1 0.00 0.05 0.03 67 1004.1
20260506142620 17 181 3.2 11.3 0.00 0.05 0.03 68 1004.2
20260506142020 17 242 1.6 8.0 0.00 0.05 0.03 68 1004.1
20260506141421 17 188 3.2 9.7 0.03 0.05 0.03 70 1004.1
20260506140806 17 245 0.0 3.2 0.03 0.05 0.03 74 1004.1
20260506140220 16 300 0.0 3.2 0.03 0.05 0.03 74 1004.0
20260506135606 16 326 0.0 1.6 0.03 0.05 0.03 78 1004.1
20260506135021 16 234 0.0 3.2 0.03 0.05 0.03 79 1004.3
20260506134421 16 214 1.6 6.4 0.03 0.05 0.03 79 1004.5
20260506133821 16 232 1.6 4.8 0.03 0.05 0.03 78 1004.5
20260506133221 16 260 0.0 3.2 0.03 0.05 0.03 77 1004.6
20260506132620 16 258 3.2 6.4 0.03 0.05 0.03 76 1004.6
20260506132019 16 273 1.6 6.4 0.03 0.05 0.03 74 1004.5
20260506131420 16 240 4.8 8.0 0.00 0.03 0.00 69 1004.5
20260506130819 16 264 0.0 3.2 0.00 0.03 0.00 68 1004.5
20260506130219 17 264 4.8 8.0 0.00 0.03 0.00 67 1004.4
20260506125620 17 250 0.0 4.8 0.00 0.03 0.00 68 1004.3
20260506125021 17 313 1.6 8.0 0.00 0.03 0.00 69 1004.3
20260506124420 16 27 0.0 8.0 0.00 0.03 0.00 70 1004.2
20260506123806 16 5 3.2 8.0 0.00 0.03 0.00 70 1004.2
20260506123221 16 355 6.4 8.0 0.00 0.03 0.00 71 1004.2
20260506122620 16 349 0.0 8.0 0.00 0.03 0.00 71 1004.2
20260506122020 16 332 3.2 8.0 0.00 0.03 0.00 73 1004.3
20260506122007 16 332 3.2 8.0 0.00 0.03 0.00 73 1004.3
20260506121420 16 293 0.0 4.8 0.00 0.03 0.00 72 1004.2
20260506120821 16 325 3.2 8.0 0.00 0.03 0.00 70 1004.2
20260506120220 16 13 4.8 8.0 0.00 0.03 0.00 71 1004.3
20260506115620 16 348 0.0 3.2 0.00 0.05 0.00 70 1004.3
20260506115019 16 269 1.6 6.4 0.00 0.05 0.00 71 1004.4
20260506114419 16 319 3.2 9.7 0.00 0.05 0.00 72 1004.4
20260506113819 16 342 3.2 8.0 0.00 0.05 0.00 69 1004.4
20260506113220 16 342 3.2 9.7 0.00 0.05 0.00 69 1004.5
20260506112620 16 61 3.2 9.7 0.00 0.05 0.00 70 1004.4
20260506112021 16 340 3.2 11.3 0.00 0.05 0.00 72 1004.5
20260506111421 17 43 4.8 11.3 0.00 0.05 0.00 70 1004.5
20260506110820 17 281 0.0 12.9 0.00 0.05 0.00 71 1004.6
20260506110220 17 355 1.6 9.7 0.00 0.05 0.00 71 1004.7
20260506105606 16 355 1.6 9.7 0.00 0.05 0.00 73 1004.7
20260506105021 16 350 1.6 12.9 0.00 0.05 0.00 73 1004.8
20260506104421 16 344 4.8 9.7 0.00 0.05 0.00 74 1004.8
20260506103821 15 310 4.8 12.9 0.00 0.05 0.00 75 1004.9
20260506103211 15 336 4.8 9.7 0.00 0.05 0.00 75 1004.8
20260506102613 15 341 8.0 12.9 0.00 0.05 0.00 74 1004.9
20260506102020 15 17 6.4 9.7 0.00 0.05 0.00 73 1005.0
20260506101420 16 360 6.4 8.0 0.00 0.05 0.00 70 1005.3
20260506100820 16 281 0.0 6.4 0.00 0.05 0.00 72 1005.5
20260506100220 16 17 0.0 6.4 0.00 0.05 0.00 72 1005.5
20260506095621 16 338 0.0 6.4 0.00 0.05 0.00 72 1005.5
20260506095020 16 273 1.6 4.8 0.00 0.05 0.00 71 1005.5
20260506094421 15 345 1.6 6.4 0.00 0.05 0.00 71 1005.6
20260506093820 15 300 1.6 3.2 0.00 0.05 0.00 73 1005.5
20260506093221 15 254 0.0 6.4 0.00 0.05 0.00 70 1005.5
20260506092606 15 229 1.6 8.0 0.00 0.05 0.00 71 1005.5
20260506092008 15 350 0.0 6.4 0.00 0.05 0.00 72 1005.6
20260506091420 15 274 0.0 3.2 0.00 0.05 0.00 73 1005.5
20260506090821 15 323 0.0 3.2 0.00 0.05 0.00 75 1005.5
20260506090208 15 325 6.4 8.0 0.00 0.05 0.00 73 1005.5
20260506085620 15 345 0.0 6.4 0.00 0.05 0.00 77 1005.5
20260506085021 15 272 1.6 6.4 0.00 0.05 0.00 76 1005.5
20260506085006 15 272 1.6 6.4 0.00 0.05 0.00 76 1005.5
20260506084419 14 346 0.0 6.4 0.00 0.05 0.00 80 1005.4
20260506083821 13 24 0.0 4.8 0.00 0.05 0.00 80 1005.5
20260506083220 13 5 6.4 8.0 0.00 0.05 0.00 80 1005.6
20260506082621 13 16 0.0 8.0 0.00 0.05 0.00 81 1005.6
20260506082021 13 355 3.2 11.3 0.00 0.05 0.00 81 1005.6
20260506082007 13 355 3.2 11.3 0.00 0.05 0.00 81 1005.6
20260506081420 13 345 3.2 8.0 0.00 0.05 0.00 82 1005.6
20260506080820 13 330 6.4 9.7 0.00 0.05 0.00 81 1005.6
20260506080220 13 340 4.8 8.0 0.00 0.05 0.00 82 1005.5
20260506073207 13 296 0.0 3.2 0.00 0.05 0.00 84 1005.8
20260506072620 13 221 0.0 1.6 0.00 0.05 0.00 85 1005.9
20260506072020 12 221 1.6 6.4 0.00 0.05 0.00 85 1006.0
20260506071419 12 202 1.6 3.2 0.00 0.05 0.00 87 1006.1
20260506070811 12 107 0.0 0.0 0.00 0.05 0.00 88 1006.0
20260506070220 12 100 0.0 6.4 0.00 0.05 0.00 89 1006.0
20260506062021 11 78 0.0 4.8 0.00 0.05 0.00 92 1005.8
20260506062006 11 78 0.0 4.8 0.00 0.05 0.00 92 1005.8
20260506061420 11 130 1.6 6.4 0.00 0.05 0.00 92 1006.0
20260506060821 11 133 3.2 6.4 0.00 0.05 0.00 93 1006.0
20260506060220 10 113 0.0 3.2 0.00 0.05 0.00 93 1006.0
20260506050821 7 140 0.0 0.0 0.00 0.05 0.00 93 1006.1
20260506050220 7 140 0.0 0.0 0.00 0.05 0.00 93 1006.2
20260506045020 7 135 0.0 0.0 0.00 0.05 0.00 93 1006.3
20260506044421 7 135 0.0 0.0 0.00 0.05 0.00 93 1006.3
20260506043821 7 135 0.0 3.2 0.00 0.05 0.00 93 1006.3
20260506043220 7 135 0.0 0.0 0.00 0.05 0.00 93 1006.3
20260506042620 7 135 0.0 1.6 0.00 0.05 0.00 92 1006.3
20260506042020 7 139 0.0 0.0 0.00 0.05 0.00 92 1006.4
20260506041421 7 126 0.0 0.0 0.00 0.05 0.00 92 1006.5
20260506040822 7 126 0.0 0.0 0.00 0.05 0.00 93 1006.6
20260506040208 7 126 0.0 0.0 0.00 0.05 0.00 93 1006.5
20260506035620 7 126 0.0 3.2 0.00 0.05 0.00 93 1006.6
20260506035020 7 126 1.6 6.4 0.00 0.05 0.00 92 1006.7
20260506034421 7 121 1.6 6.4 0.00 0.05 0.00 92 1006.8
20260506033807 7 133 0.0 0.0 0.00 0.05 0.00 92 1006.9
20260506033220 7 133 0.0 0.0 0.00 0.05 0.00 92 1006.9
20260506032621 7 133 0.0 0.0 0.00 0.05 0.00 92 1006.9
20260506032021 7 133 0.0 0.0 0.00 0.05 0.00 92 1007.0
20260506031420 7 133 0.0 0.0 0.00 0.05 0.00 92 1006.9
20260506030808 7 126 0.0 3.2 0.00 0.05 0.00 92 1006.9
20260506030221 7 140 0.0 4.8 0.00 0.05 0.00 92 1007.0
20260506025621 7 134 0.0 3.2 0.00 0.05 0.00 92 1007.0
20260506025021 7 121 0.0 3.2 0.00 0.05 0.00 92 1007.1
20260506024420 7 128 1.6 3.2 0.00 0.05 0.00 92 1007.1
20260506023821 7 132 0.0 3.2 0.00 0.05 0.00 92 1007.2
20260506023208 8 124 3.2 6.4 0.00 0.05 0.00 92 1007.1
20260506022622 8 123 1.6 6.4 0.00 0.05 0.00 92 1007.1
20260506022022 8 123 0.0 0.0 0.00 0.05 0.00 92 1007.2
20260506021422 8 157 0.0 0.0 0.00 0.05 0.00 92 1007.3
20260506020811 8 157 0.0 0.0 0.00 0.05 0.00 92 1007.3
20260506020209 8 157 0.0 0.0 0.00 0.05 0.00 92 1007.2
20260506015607 8 157 0.0 0.0 0.00 0.05 0.00 91 1007.3
20260506015020 8 157 0.0 0.0 0.00 0.05 0.00 92 1007.2
20260506014421 8 195 0.0 0.0 0.00 0.05 0.00 92 1007.3
20260506013806 9 221 0.0 0.0 0.00 0.05 0.00 92 1007.3
20260506013207 9 221 0.0 0.0 0.00 0.05 0.00 92 1007.4
20260506012620 9 221 0.0 0.0 0.00 0.05 0.00 92 1007.4
20260506012021 9 221 0.0 1.6 0.00 0.05 0.00 92 1007.5
20260506011414 9 201 1.6 3.2 0.00 0.05 0.00 92 1007.8
20260506010821 9 208 1.6 1.6 0.00 0.05 0.00 92 1007.8
20260506010221 9 207 1.6 3.2 0.00 0.05 0.00 92 1007.7
20260506005622 9 213 3.2 9.7 0.00 0.05 0.00 92 1007.6
20260506005022 9 191 1.6 6.4 0.00 0.05 0.00 92 1007.6
20260506004413 9 194 1.6 6.4 0.00 0.05 0.00 92 1007.5
20260506003810 9 192 1.6 3.2 0.00 0.05 0.00 92 1007.6
20260506003209 8 209 0.0 3.2 0.00 0.05 0.00 92 1007.6
20260506002606 8 192 0.0 1.6 0.00 0.05 0.00 91 1007.6
20260506002020 8 225 0.0 0.0 0.00 0.05 0.00 91 1007.7
20260506001420 8 225 0.0 0.0 0.00 0.05 0.00 91 1007.7
20260506000820 9 225 0.0 0.0 0.00 0.05 0.00 91 1007.8
20260506000220 9 225 0.0 0.0 0.00 0.05 0.00 91 1007.8
20260505235620 9 225 0.0 3.2 0.00 0.05 0.00 91 1007.7
20260505235020 9 225 3.2 8.0 0.00 0.05 0.00 91 1007.8
20260505234420 9 235 0.0 9.7 0.00 0.05 0.00 91 1007.9